Location: Novo Ouro Preto
(19.8840°S, 43.9844°W)
Time: 09:44:40
(UTC+00:00)

GPS 2-15 Rocket1 - Pass Details

Date: 18 September 2020
Orbit: 624 x 675 km, 19.8° (Epoch: 20 October)

Event Time Altitude Azimuth Distance (km) Brightness Sun altitude
Rises 21:49:10 0° 266° (W) 3,013 8.6 -14.4°
Reaches altitude 10° 21:51:37 10° 270° (W) 2,101 7.2 -15.0°
Maximum altitude 21:56:29 55° 347° (NNW) 806 3.6 -16.2°
Enters shadow 21:59:09 25° 55° (NE) 1,339 4.3 -16.8°
